AP679 Weather Reports


time (UTC)temp
F
wind
direction
speed
knots
gust
knots
rain 1hr
in
rain 24hr
in
rain mn
in
humidity
%
barometer
mb
20260507070008 55 40 1.7 2.6 0.00 0.00 0.00 84 1016.0
20260507065503 55 41 1.7 4.3 0.00 0.00 0.00 86 1015.9
20260507065004 54 42 1.7 2.6 0.00 0.00 0.00 89 1016.0
20260507064504 53 40 1.7 2.6 0.00 0.00 0.00 90 1016.0
20260507064003 52 40 0.0 4.3 0.00 0.00 0.00 91 1015.9
20260507063503 52 40 1.7 2.6 0.00 0.00 0.00 92 1015.9
20260507063004 51 40 1.7 2.6 0.00 0.00 0.00 92 1015.9
20260507062504 51 40 1.7 2.6 0.00 0.00 0.00 92 1015.9
20260507062004 51 40 1.7 4.3 0.00 0.00 0.00 92 1015.8
20260507061504 51 40 0.9 2.6 0.00 0.00 0.00 92 1015.8
20260507061003 51 40 0.9 2.6 0.00 0.00 0.00 92 1015.8
20260507060004 51 40 0.9 2.6 0.00 0.00 0.00 92 1015.6
20260507055504 50 40 1.7 2.6 0.00 0.00 0.00 92 1015.6
20260507055003 50 40 0.9 2.6 0.00 0.00 0.00 92 1015.6
20260507054503 50 40 0.9 2.6 0.00 0.00 0.00 92 1015.5
20260507054003 50 40 0.9 2.6 0.00 0.00 0.00 92 1015.4
20260507053504 50 40 0.9 2.6 0.00 0.00 0.00 92 1015.5
20260507053006 50 41 1.7 4.3 0.00 0.00 0.00 92 1015.4
20260507052504 50 42 0.9 2.6 0.00 0.00 0.00 92 1015.4
20260507051004 50 42 1.7 2.6 0.00 0.00 0.00 92 1015.2
20260507050504 50 43 1.7 2.6 0.00 0.00 0.00 92 1015.0
20260507050004 50 43 0.9 2.6 0.00 0.00 0.00 92 1015.1
20260507044504 50 43 0.0 0.9 0.00 0.00 0.00 91 1014.9
20260507044004 50 43 0.0 1.7 0.00 0.00 0.00 91 1014.8
20260507043004 51 44 0.0 1.7 0.00 0.00 0.00 91 1014.8
20260507042504 51 44 0.0 1.7 0.00 0.00 0.00 91 1014.7
20260507041504 51 44 0.0 2.6 0.00 0.00 0.00 91 1014.5
20260507041004 51 44 0.9 2.6 0.00 0.00 0.00 91 1014.5
20260507040504 51 44 0.0 0.0 0.00 0.00 0.00 90 1014.5
20260507040004 51 44 0.9 2.6 0.00 0.00 0.00 91 1014.5
20260507035504 51 44 0.0 2.6 0.00 0.00 0.00 90 1014.5
20260507035003 51 44 0.9 2.6 0.00 0.00 0.00 90 1014.5
20260507034504 51 44 0.9 2.6 0.00 0.00 0.00 90 1014.4
20260507034004 51 44 0.9 2.6 0.00 0.00 0.00 90 1014.4
20260507033504 51 44 0.9 2.6 0.00 0.00 0.00 89 1014.3
20260507033004 51 44 0.9 2.6 0.00 0.00 0.00 90 1014.3
20260507032504 51 44 1.7 4.3 0.00 0.00 0.00 89 1014.3
20260507032004 51 44 0.9 4.3 0.00 0.00 0.00 89 1014.2
20260507031504 51 44 1.7 2.6 0.00 0.00 0.00 89 1014.2
20260507031004 51 44 0.9 4.3 0.00 0.00 0.00 89 1014.2
20260507030504 51 44 1.7 4.3 0.00 0.00 0.00 88 1014.2
20260507025503 51 55 2.6 6.1 0.00 0.00 0.00 88 1014.1
20260507025004 52 57 1.7 6.1 0.00 0.00 0.00 88 1014.1
20260507024504 52 59 1.7 4.3 0.00 0.00 0.00 88 1014.1
20260507024004 52 60 1.7 4.3 0.00 0.00 0.00 88 1014.1
20260507023003 52 75 0.9 2.6 0.00 0.00 0.00 88 1014.1
20260507022504 52 75 0.9 2.6 0.00 0.00 0.00 88 1014.0
20260507022003 52 75 0.9 2.6 0.00 0.00 0.00 87 1014.0
20260507021503 52 82 0.0 1.7 0.00 0.00 0.00 87 1014.0
20260507021003 52 82 0.0 2.6 0.00 0.00 0.00 87 1014.0
20260507020503 52 82 0.0 2.6 0.00 0.00 0.00 87 1013.9
20260507020004 52 82 0.0 0.9 0.00 0.00 0.00 87 1013.8
20260507015504 52 82 0.0 1.7 0.00 0.00 0.00 87 1013.8
20260507015004 52 82 0.0 2.6 0.00 0.00 0.00 87 1013.7
20260507014504 52 82 0.0 1.7 0.00 0.00 0.00 87 1013.7
20260507013503 52 82 0.0 0.0 0.00 0.00 0.00 86 1013.8
20260507013004 52 82 0.0 0.0 0.00 0.00 0.00 85 1013.7
20260507012004 52 82 0.0 0.0 0.00 0.00 0.00 85 1013.8
20260507011004 52 82 0.0 0.9 0.00 0.00 0.00 85 1013.8
20260507010504 52 82 0.0 0.9 0.00 0.00 0.00 85 1013.8
20260507010004 52 82 0.0 2.6 0.00 0.00 0.00 84 1013.8
20260507005504 52 82 0.0 1.7 0.00 0.00 0.00 84 1013.7
20260507004504 52 82 0.0 0.0 0.00 0.00 0.00 84 1013.7
20260507004004 52 82 0.0 0.0 0.00 0.00 0.00 84 1013.7
20260507003504 52 82 0.0 0.0 0.00 0.00 0.00 84 1013.7
20260507003004 52 82 0.0 0.0 0.00 0.00 0.00 84 1013.7
20260507002504 52 82 0.0 0.0 0.00 0.00 0.00 84 1013.6
20260507002003 52 82 0.0 0.0 0.00 0.00 0.00 84 1013.6
20260507001504 52 82 0.0 0.0 0.00 0.00 0.00 84 1013.5
20260507001004 52 82 0.0 0.0 0.00 0.00 0.00 84 1013.5
20260507000504 52 82 0.0 0.0 0.00 0.00 0.00 84 1013.5
20260507000005 52 82 0.0 0.0 0.00 0.00 0.00 84 1013.6
20260506235504 52 82 0.0 0.0 0.00 0.00 0.00 84 1013.5
20260506235004 52 82 0.0 0.0 0.00 0.00 0.00 83 1013.5
20260506233504 52 82 0.0 0.0 0.00 0.00 0.00 83 1013.4
20260506233004 53 82 0.0 0.9 0.00 0.00 0.00 82 1013.4
20260506232004 53 82 0.0 2.6 0.00 0.00 0.00 82 1013.3
20260506231505 53 82 0.0 0.9 0.00 0.00 0.00 81 1013.3
20260506231003 53 82 0.0 0.0 0.00 0.00 0.00 81 1013.3
20260506230504 53 82 0.0 0.9 0.00 0.00 0.00 81 1013.2
20260506230004 53 82 0.0 2.6 0.00 0.00 0.00 81 1013.2
20260506224504 53 82 0.0 1.7 0.00 0.00 0.00 81 1013.1
20260506224003 53 82 0.0 0.9 0.00 0.00 0.00 81 1013.1
20260506223504 53 82 0.0 2.6 0.00 0.00 0.00 80 1013.1
20260506223004 53 82 0.9 2.6 0.00 0.00 0.00 80 1013.1
20260506222504 53 82 0.9 1.7 0.00 0.00 0.00 80 1013.1
20260506222004 54 82 0.0 0.9 0.00 0.00 0.00 79 1013.0
20260506221504 54 82 0.0 1.7 0.00 0.00 0.00 79 1013.0
20260506221003 54 82 0.0 2.6 0.00 0.00 0.00 78 1013.0
20260506220504 54 82 1.7 2.6 0.00 0.00 0.00 78 1013.1
20260506220004 54 83 0.0 1.7 0.00 0.00 0.00 78 1013.1
20260506215004 54 83 0.0 0.9 0.00 0.00 0.00 77 1013.1
20260506214504 54 83 0.0 1.7 0.00 0.00 0.00 77 1013.0
20260506214004 54 83 0.0 1.7 0.00 0.00 0.00 77 1012.9
20260506213504 54 83 0.9 1.7 0.00 0.00 0.00 77 1012.9
20260506213004 54 83 0.9 1.7 0.00 0.00 0.00 77 1012.8
20260506212504 54 83 0.0 1.7 0.00 0.00 0.00 76 1012.8
20260506212004 54 83 0.9 1.7 0.00 0.00 0.00 76 1012.7
20260506211504 54 83 0.0 0.9 0.00 0.00 0.00 76 1012.6
20260506211004 54 83 0.9 1.7 0.00 0.00 0.00 76 1012.6
20260506210004 54 83 0.0 0.0 0.00 0.00 0.00 76 1012.6
20260506205505 54 83 0.0 0.9 0.00 0.00 0.00 75 1012.6
20260506205004 54 83 0.0 2.6 0.00 0.00 0.00 75 1012.6
20260506204503 54 83 0.0 0.9 0.00 0.00 0.00 75 1012.4
20260506204004 54 83 0.9 5.2 0.00 0.00 0.00 74 1012.4
20260506203504 54 83 1.7 5.2 0.00 0.00 0.00 74 1012.3
20260506202503 54 85 0.9 5.2 0.00 0.00 0.00 74 1012.2
20260506202003 54 88 1.7 5.2 0.00 0.00 0.00 74 1012.3
20260506201503 54 84 3.5 7.0 0.00 0.00 0.00 74 1012.2
20260506200504 55 94 4.3 7.0 0.00 0.00 0.00 73 1012.2
20260506200005 55 61 1.7 6.1 0.00 0.00 0.00 73 1012.2
20260506195503 55 77 1.7 6.1 0.00 0.00 0.00 73 1012.1
20260506195004 55 61 3.5 8.7 0.00 0.00 0.00 73 1012.0
20260506194504 55 75 3.5 7.0 0.00 0.00 0.00 72 1011.9
20260506194004 55 74 2.6 6.1 0.00 0.00 0.00 73 1011.9
20260506193504 55 72 2.6 7.8 0.00 0.00 0.00 72 1011.9
20260506192004 55 92 0.9 7.0 0.00 0.00 0.00 73 1011.8
20260506191506 55 100 1.7 5.2 0.00 0.00 0.00 73 1011.7
20260506191003 55 80 2.6 7.8 0.00 0.00 0.00 73 1011.7
20260506190504 55 63 1.7 7.8 0.00 0.00 0.00 73 1011.7
20260506190005 55 70 2.6 6.1 0.00 0.00 0.00 73 1011.6
20260506185004 55 63 2.6 7.0 0.00 0.00 0.00 72 1011.5
20260506184504 55 48 3.5 8.7 0.00 0.00 0.00 71 1011.4
20260506183504 56 52 4.3 7.8 0.00 0.00 0.00 69 1011.4
20260506183006 56 49 4.3 8.7 0.00 0.00 0.00 69 1011.3
20260506182004 56 44 4.3 8.7 0.00 0.00 0.00 68 1011.1
20260506181504 56 61 4.3 8.7 0.00 0.00 0.00 68 1011.0
20260506181003 57 65 5.2 8.7 0.00 0.00 0.00 67 1011.0
20260506180504 57 52 1.7 6.1 0.00 0.00 0.00 68 1010.9
20260506180005 57 43 2.6 7.0 0.00 0.00 0.00 67 1010.8
20260506175504 57 52 2.6 7.8 0.00 0.00 0.00 67 1010.7
20260506175004 57 68 2.6 6.1 0.00 0.00 0.00 67 1010.7
20260506174504 57 48 2.6 7.0 0.00 0.00 0.00 66 1010.6
20260506173505 58 45 3.5 8.7 0.00 0.00 0.00 65 1010.5
20260506173004 58 60 2.6 7.0 0.00 0.00 0.00 65 1010.5
20260506172504 58 48 3.5 7.0 0.00 0.00 0.00 65 1010.4
20260506172004 58 54 2.6 7.0 0.00 0.00 0.00 65 1010.4
20260506170004 58 38 2.6 6.1 0.00 0.00 0.00 66 1010.3
20260506165504 58 53 2.6 7.0 0.00 0.00 0.00 66 1010.2
20260506165004 58 61 4.3 7.0 0.00 0.00 0.00 67 1010.1
20260506163504 58 29 1.7 7.0 0.00 0.00 0.00 69 1010.0
20260506162503 59 346 3.5 7.0 0.00 0.00 0.00 70 1010.0
20260506162004 59 351 3.5 7.0 0.00 0.00 0.00 69 1010.0
20260506161504 60 29 3.5 7.0 0.00 0.00 0.00 68 1009.9
20260506161004 60 11 2.6 6.1 0.00 0.00 0.00 68 1009.9
20260506160003 61 324 5.2 7.8 0.00 0.00 0.00 66 1009.9
20260506155504 60 16 5.2 7.8 0.00 0.00 0.00 66 1010.0
20260506154504 60 4 4.3 8.7 0.00 0.00 0.00 66 1010.0
20260506153504 59 326 3.5 7.0 0.00 0.00 0.00 69 1010.0
20260506153005 59 349 3.5 7.8 0.00 0.00 0.00 69 1010.0
20260506152504 58 329 2.6 7.0 0.00 0.00 0.00 70 1010.1
20260506140004 58 354 3.5 7.0 0.00 0.00 0.00 80 1009.9
20260506135504 58 321 4.3 8.7 0.00 0.00 0.00 81 1009.9
20260506135004 58 327 5.2 8.7 0.00 0.00 0.00 80 1009.9
20260506132003 58 326 4.3 7.8 0.00 0.00 0.00 73 1009.9
20260506131504 59 344 6.1 12.2 0.00 0.00 0.00 72 1009.8
20260506131004 59 321 5.2 10.4 0.00 0.00 0.00 71 1009.8
20260506130504 59 28 5.2 10.4 0.00 0.00 0.00 71 1009.8
20260506125503 59 33 2.6 8.7 0.00 0.00 0.00 71 1009.7
20260506125004 59 8 4.3 8.7 0.00 0.00 0.00 71 1009.7
20260506124504 59 321 4.3 10.4 0.00 0.00 0.00 72 1009.7
20260506124004 59 22 3.5 11.3 0.00 0.00 0.00 72 1009.7
20260506123504 59 3 3.5 7.0 0.00 0.00 0.00 73 1009.7
20260506123004 59 322 4.3 7.8 0.00 0.00 0.00 73 1009.6
20260506122504 59 323 4.3 10.4 0.00 0.00 0.00 74 1009.6
20260506122004 59 332 3.5 10.4 0.00 0.00 0.00 74 1009.6
20260506121004 59 344 3.5 8.7 0.00 0.00 0.00 75 1009.6
20260506120504 59 14 4.3 7.0 0.00 0.00 0.00 74 1009.6
20260506120004 59 319 5.2 10.4 0.00 0.00 0.00 74 1009.5
20260506115504 59 331 4.3 7.8 0.00 0.00 0.00 76 1009.5
20260506114504 60 324 4.3 7.8 0.00 0.00 0.00 75 1009.6
20260506114003 60 10 5.2 8.7 0.00 0.00 0.00 75 1009.5
20260506113503 60 328 5.2 10.4 0.00 0.00 0.00 73 1009.6
20260506113004 60 337 3.5 7.0 0.00 0.00 0.00 71 1009.5
20260506112503 61 320 5.2 8.7 0.00 0.00 0.00 72 1009.4
20260506112004 60 20 1.7 7.8 0.00 0.00 0.00 72 1009.4
20260506111503 60 36 3.5 7.8 0.00 0.00 0.00 74 1009.5
20260506111003 59 326 5.2 10.4 0.00 0.00 0.00 73 1009.6
20260506110004 59 346 5.2 12.2 0.00 0.00 0.00 76 1009.6
20260506105503 59 348 4.3 8.7 0.00 0.00 0.00 77 1009.6
20260506105004 59 35 3.5 10.4 0.00 0.00 0.00 78 1009.7
20260506104503 59 328 5.2 10.4 0.00 0.00 0.00 78 1009.6
20260506104004 59 31 3.5 7.8 0.00 0.00 0.00 80 1009.7
20260506103503 58 24 4.3 7.0 0.00 0.00 0.00 80 1009.7
20260506103004 58 334 5.2 8.7 0.00 0.00 0.00 81 1009.7
20260506102504 58 333 6.1 10.4 0.00 0.00 0.00 81 1009.6
20260506102004 58 22 4.3 8.7 0.00 0.00 0.00 82 1009.6
20260506101503 57 20 4.3 8.7 0.00 0.00 0.00 82 1009.6
20260506101004 57 0 2.6 7.8 0.00 0.00 0.00 83 1009.6
20260506100504 57 324 3.5 8.7 0.00 0.00 0.00 83 1009.6
20260506100004 57 337 5.2 10.4 0.00 0.00 0.00 84 1009.5
20260506095503 57 336 4.3 10.4 0.00 0.00 0.00 83 1009.5
20260506095004 57 321 5.2 11.3 0.00 0.00 0.00 84 1009.5
20260506094504 56 26 5.2 10.4 0.00 0.00 0.00 84 1009.4
20260506094004 56 335 4.3 8.7 0.00 0.00 0.00 86 1009.5
20260506092504 55 357 4.3 10.4 0.00 0.00 0.00 89 1009.5
20260506092004 55 9 5.2 10.4 0.00 0.00 0.00 89 1009.5
20260506091503 55 349 5.2 10.4 0.00 0.00 0.00 91 1009.5
20260506090504 54 334 5.2 13.9 0.00 0.00 0.00 92 1009.4
20260506090004 54 323 3.5 8.7 0.00 0.00 0.00 93 1009.3
20260506085504 53 24 4.3 8.7 0.00 0.00 0.00 93 1009.3
20260506085004 53 21 4.3 7.0 0.00 0.00 0.00 94 1009.3
20260506084505 53 342 5.2 10.4 0.00 0.00 0.00 94 1009.3
20260506084004 52 328 5.2 7.8 0.00 0.00 0.00 93 1009.3
20260506083503 52 18 1.7 6.1 0.00 0.00 0.00 93 1009.2
20260506083005 52 326 4.3 7.8 0.00 0.00 0.00 93 1009.2
20260506082504 51 23 3.5 8.7 0.00 0.00 0.00 92 1009.2
20260506082004 51 324 4.3 8.7 0.00 0.00 0.00 92 1009.2
20260506081503 51 327 2.6 6.1 0.00 0.00 0.00 92 1009.2
20260506081003 51 328 1.7 2.6 0.00 0.00 0.00 92 1009.2
20260506080504 51 328 1.7 7.0 0.00 0.00 0.00 92 1009.2
20260506073504 50 333 2.6 5.2 0.00 0.00 0.00 92 1009.2
20260506072503 50 339 1.7 5.2 0.00 0.00 0.00 92 1009.2
20260506072003 50 7 0.9 6.1 0.00 0.00 0.00 92 1009.1
20260506071504 50 22 0.9 4.3 0.00 0.00 0.00 92 1009.1
20260506071004 50 22 1.7 4.3 0.00 0.00 0.00 93 1009.1